Regional Weather Roundup
Issued by NWS

Home | Current Version | Previous Version | Graphics & Text | Print | Product List | Glossary On
Versions: 1 2 3 4 5 6 7 8 9 10 11 12 13 14 15 16 17 18 19 20 21 22 23 24 25 26 27 28 29 30 31 32 33 34 35 36 37 38 39 40 41 42 43 44 45 46 47 48 49 50
000
ASUS43 KBIS 220010
RWRND

NORTH DAKOTA REGIONAL WEATHER ROUNDUP
NATIONAL WEATHER SERVICE BISMARCK ND
600 PM CST WED FEB 21 2018

NOTE: "FAIR" INDICATES FEW OR NO CLOUDS BELOW 12,000 FEET WITH NO
SIGNIFICANT WEATHER AND/OR OBSTRUCTIONS TO VISIBILITY.


NDZ001>003-009>011-017-220100-
NORTHWEST NORTH DAKOTA

CITY           SKY/WX    TMP DP  RH WIND       PRES   REMARKS
WILLISTON      FAIR      10   1  67 E7        30.26F WCI  -1
6HR MIN TEMP:   3; 6HR MAX TEMP:  15;

MINOT          FAIR      10   1  67 SE6       30.34F WCI   0
MINOT AFB      FAIR       7   0  72 S7        30.33F WCI  -4
$$

NDZ018>021-031>035-040>046-220100-
SOUTHWEST NORTH DAKOTA

CITY           SKY/WX    TMP DP  RH WIND       PRES   REMARKS
BISMARCK       FAIR      10   0  63 SE8       30.40F WCI  -2
6HR MIN TEMP:   9; 6HR MAX TEMP:  17;

DICKINSON      FAIR       9  -4  55 S13       30.23F WCI  -7
GARRISON         N/A      9   1  70 SE8       30.34F WCI  -3
6HR MIN TEMP:   5; 6HR MAX TEMP:  12;

HETTINGER ARPT FAIR       5  -4  66 SE9       30.27F WCI  -9
$$

NDZ004>008-012>016-024-026-027-054-220100-
NORTHEAST NORTH DAKOTA

CITY           SKY/WX    TMP DP  RH WIND       PRES   REMARKS
GRAND FORKS    FAIR       6  -1  73 S7        30.52S WCI  -6
GRND FRKS AFB  FAIR       8  -2  65 W5        30.51S WCI  -1
DEVILS LAKE    FAIR       6  -1  73 S7        30.44F WCI  -6
$$

NDZ022-023-025-028>030-036>039-047>053-220100-
SOUTHEAST NORTH DAKOTA

CITY           SKY/WX    TMP DP  RH WIND       PRES   REMARKS
FARGO          FAIR      12   2  64 S9        30.53F WCI   0
6HR MIN TEMP:   6; 6HR MAX TEMP:  13;

JAMESTOWN      FAIR      13   2  61 CALM      30.44F
$$





USA.gov is the U.S. government's official web portal to all federal, state and local government web resources and services.